Time,TemperatureF,DewpointF,PressureIn,WindDirection,WindDirectionDegrees,WindSpeedMPH,WindSpeedGustMPH,Humidity,HourlyPrecipIn,Conditions,Clouds,dailyrainin,SoftwareType,DateUTC
2013-10-24 00:00:00,47.6,25.7,29.98,East,92,0.0,0.0,42,0.00,,SKC,0.00,VWS V12.07,2013-10-24 06:00:00,
2013-10-24 00:30:00,48.3,21.9,29.97,East,92,0.0,0.0,35,0.00,,SKC,0.00,VWS V12.07,2013-10-24 06:30:00,
2013-10-24 01:00:00,47.1,23.4,29.96,East,92,0.0,0.0,39,0.00,,SKC,0.00,VWS V12.07,2013-10-24 07:00:00,
2013-10-24 01:30:00,48.8,23.7,29.96,East,92,0.0,0.0,37,0.00,,SKC,0.00,VWS V12.07,2013-10-24 07:30:00,
2013-10-24 02:00:00,46.5,25.2,29.94,East,92,0.0,0.0,43,0.00,,SKC,0.00,VWS V12.07,2013-10-24 08:00:00,
2013-10-24 02:30:00,47.3,24.8,29.94,East,92,0.0,0.0,41,0.00,,SKC,0.00,VWS V12.07,2013-10-24 08:30:00,
2013-10-24 03:00:00,46.0,27.4,29.95,East,92,0.0,0.0,48,0.00,,SKC,0.00,VWS V12.07,2013-10-24 09:00:00,
2013-10-24 03:30:00,46.1,28.0,29.95,East,92,0.0,0.0,49,0.00,,SKC,0.00,VWS V12.07,2013-10-24 09:30:00,
2013-10-24 04:00:00,42.9,26.5,29.95,East,92,0.0,0.0,52,0.00,,SKC,0.00,VWS V12.07,2013-10-24 10:00:00,
2013-10-24 04:30:00,44.6,27.1,29.94,East,92,0.0,0.0,50,0.00,,SKC,0.00,VWS V12.07,2013-10-24 10:30:00,
2013-10-24 05:00:00,45.7,27.6,29.93,East,92,0.0,0.0,49,0.00,,SKC,0.00,VWS V12.07,2013-10-24 11:00:00,
2013-10-24 05:30:00,43.9,27.9,29.97,East,92,0.0,0.0,53,0.00,,SKC,0.00,VWS V12.07,2013-10-24 11:30:00,
2013-10-24 06:00:00,44.6,26.6,29.99,East,92,0.0,0.0,49,0.00,,SKC,0.00,VWS V12.07,2013-10-24 12:00:00,
2013-10-24 06:30:00,46.8,21.9,29.98,East,92,0.0,0.0,37,0.00,,SKC,0.00,VWS V12.07,2013-10-24 12:30:00,
2013-10-24 07:00:00,44.9,23.8,30.02,East,92,0.0,0.0,43,0.00,,SKC,0.00,VWS V12.07,2013-10-24 13:00:00,
2013-10-24 07:30:00,46.4,23.4,30.01,East,92,0.0,0.0,40,0.00,,SKC,0.00,VWS V12.07,2013-10-24 13:30:00,
2013-10-24 08:00:00,44.9,24.3,30.03,East,92,0.0,0.0,44,0.00,,SKC,0.00,VWS V12.07,2013-10-24 14:00:00,
2013-10-24 08:30:00,44.9,24.3,30.05,East,92,0.0,0.0,44,0.00,,SKC,0.00,VWS V12.07,2013-10-24 14:30:00,
2013-10-24 09:00:00,44.8,25.3,30.07,East,92,0.0,0.0,46,0.00,,SKC,0.00,VWS V12.07,2013-10-24 15:00:00,
2013-10-24 09:30:00,44.8,25.3,30.06,East,92,0.0,0.0,46,0.00,,SKC,0.00,VWS V12.07,2013-10-24 15:30:00,
2013-10-24 10:00:00,46.4,27.8,30.07,East,92,0.0,0.0,48,0.00,,SKC,0.00,VWS V12.07,2013-10-24 16:00:00,
2013-10-24 10:30:00,52.5,27.0,30.04,East,92,0.0,0.0,37,0.00,,SKC,0.00,VWS V12.07,2013-10-24 16:30:00,
2013-10-24 11:00:00,53.2,28.3,30.02,East,92,0.0,0.0,38,0.00,,SKC,0.00,VWS V12.07,2013-10-24 17:00:00,
2013-10-24 11:30:00,54.8,29.7,30.01,East,92,0.0,0.0,38,0.00,,SKC,0.00,VWS V12.07,2013-10-24 17:30:00,
2013-10-24 12:00:00,55.4,31.5,29.99,East,92,0.0,0.0,40,0.00,,SKC,0.00,VWS V12.07,2013-10-24 18:00:00,
2013-10-24 12:30:00,55.9,32.0,29.99,East,92,0.0,0.0,40,0.00,,SKC,0.00,VWS V12.07,2013-10-24 18:30:00,
2013-10-24 13:00:00,57.6,32.2,29.97,East,92,0.0,0.0,38,0.00,,SKC,0.00,VWS V12.07,2013-10-24 19:00:00,
2013-10-24 13:30:00,58.7,32.5,29.95,ESE,107,0.0,0.0,37,0.00,,SKC,0.00,VWS V12.07,2013-10-24 19:30:00,
2013-10-24 14:00:00,58.7,31.8,29.95,ESE,107,0.0,0.0,36,0.00,,SKC,0.00,VWS V12.07,2013-10-24 20:00:00,
2013-10-24 14:30:00,60.1,32.4,29.95,ESE,107,0.0,0.0,35,0.00,,SKC,0.00,VWS V12.07,2013-10-24 20:30:00,
2013-10-24 15:00:00,62.3,32.9,29.91,ESE,103,0.0,0.0,33,0.00,,SKC,0.00,VWS V12.07,2013-10-24 21:00:00,
2013-10-24 15:30:00,63.1,31.2,29.90,ESE,103,0.0,0.0,30,0.00,,SKC,0.00,VWS V12.07,2013-10-24 21:30:00,
2013-10-24 16:00:00,62.3,31.3,29.92,East,94,0.0,0.0,31,0.00,,SKC,0.00,VWS V12.07,2013-10-24 22:00:00,
2013-10-24 16:30:00,60.7,30.7,29.92,East,94,0.0,0.0,32,0.00,,SKC,0.00,VWS V12.07,2013-10-24 22:30:00,
2013-10-24 17:00:00,60.1,30.2,29.94,East,94,0.0,0.0,32,0.00,,SKC,0.00,VWS V12.07,2013-10-24 23:00:00,
2013-10-24 17:30:00,57.8,32.4,29.94,East,94,0.0,0.0,38,0.00,,SKC,0.00,VWS V12.07,2013-10-24 23:30:00,
2013-10-24 18:00:00,57.0,31.0,29.94,East,94,0.0,0.0,37,0.00,,SKC,0.00,VWS V12.07,2013-10-25 00:00:00,
2013-10-24 18:30:00,56.5,31.2,29.94,East,94,0.0,0.0,38,0.00,,SKC,0.00,VWS V12.07,2013-10-25 00:30:00,
2013-10-24 19:00:00,54.7,25.4,29.97,East,94,0.0,0.0,32,0.00,,SKC,0.00,VWS V12.07,2013-10-25 01:00:00,
2013-10-24 19:30:00,53.6,22.1,29.98,East,94,0.0,0.0,29,0.00,,SKC,0.00,VWS V12.07,2013-10-25 01:30:00,
2013-10-24 20:00:00,52.3,23.3,30.01,East,94,0.0,0.0,32,0.00,,SKC,0.00,VWS V12.07,2013-10-25 02:00:00,
2013-10-24 20:30:00,50.8,26.1,30.02,East,94,0.0,0.0,38,0.00,,SKC,0.00,VWS V12.07,2013-10-25 02:30:00,
2013-10-24 21:00:00,49.5,26.8,30.03,East,94,0.0,0.0,41,0.00,,SKC,0.00,VWS V12.07,2013-10-25 03:00:00,
2013-10-24 21:30:00,51.9,25.8,30.02,East,94,0.0,0.0,36,0.00,,SKC,0.00,VWS V12.07,2013-10-25 03:30:00,
2013-10-24 22:00:00,51.0,26.3,30.00,East,94,0.0,0.0,38,0.00,,SKC,0.00,VWS V12.07,2013-10-25 04:00:00,
2013-10-24 22:30:00,49.5,23.7,30.01,East,94,0.0,0.0,36,0.00,,SKC,0.00,VWS V12.07,2013-10-25 04:30:00,
2013-10-24 23:00:00,51.3,22.5,29.99,East,94,0.0,0.0,32,0.00,,SKC,0.00,VWS V12.07,2013-10-25 05:00:00,
2013-10-24 23:30:00,49.6,23.1,29.98,East,94,0.0,0.0,35,0.00,,SKC,0.00,VWS V12.07,2013-10-25 05:30:00,